Regional Weather Roundup
Issued by NWS

Home | Current Version | Previous Version | Graphics & Text | Print | Product List | Glossary On
Versions: 1 2 3 4 5 6 7 8 9 10 11 12 13 14 15 16 17 18 19 20 21 22 23 24 25 26 27 28 29 30 31 32 33 34 35 36 37 38 39 40 41 42 43 44 45 46 47 48 49 50
000
ASUS43 KDTX 221210
RWRMI
MICHIGAN HOURLY REGIONAL WEATHER ROUNDUP
NATIONAL WEATHER SERVICE DETROIT/PONTIAC MI
ISSUED BY NATIONAL WEATHER SERVICE GRAND RAPIDS MI
800 AM EDT SAT JUL 22 2017

NOTE: "FAIR" INDICATES FEW OR NO CLOUDS BELOW 12,000 FEET WITH NO
SIGNIFICANT WEATHER AND/OR OBSTRUCTION TO VISIBILITY.

MIZ047>049-052>055-059>063-066>070-074>076-081>083-221300-
SOUTHEAST LOWER MICHIGAN

CITY           SKY/WX    TMP DP  RH WIND       PRES   REMARKS
ADRIAN         CLOUDY    71  68  90 CALM      29.84F
6HR MIN TEMP:  70; 6HR MAX TEMP:  74; 6HR PCP:  0.25;

ALMA           CLOUDY    71  69  93 E6        29.83R
ANN ARBOR      CLOUDY    72  69  90 CALM      29.85S
BAD AXE        RAIN      70  68  94 W3        29.88R
6HR MIN TEMP:  68; 6HR MAX TEMP:  71;

DETROIT CITY   CLOUDY    76  72  87 S5        29.84S
6HR MIN TEMP:  76; 6HR MAX TEMP:  78; 6HR PCP: TRACE;

DETROIT        CLOUDY    74  69  85 W8        29.85S
6HR MIN TEMP:  74; 6HR MAX TEMP:  78; 6HR PCP:  0.01;

FLINT          CLOUDY    72  69  90 S7        29.84F
6HR MIN TEMP:  72; 6HR MAX TEMP:  75; 6HR PCP:  0.01;

GROSSE ILE     DRIZZLE   74  72  91 SW6       29.84S
6HR MIN TEMP:  74; 6HR MAX TEMP:  78; 6HR PCP:  0.01;

HILLSDALE      CLOUDY    68  66  94 SE7       29.83F
HOWELL         LGT RAIN  71  68  92 SE8       29.83F
6HR MIN TEMP:  71; 6HR MAX TEMP:  75;


CITY           SKY/WX    TMP DP  RH WIND       PRES   REMARKS
JACKSON        CLOUDY    72  68  87 S5        29.83F
6HR MIN TEMP:  71; 6HR MAX TEMP:  75; 6HR PCP:  0.05;

LANSING        LGT RAIN  73  67  81 S6        29.82S
6HR MIN TEMP:  72; 6HR MAX TEMP:  76; 6HR PCP: TRACE;

MASON          CLOUDY    71  68  91 S7        29.82S
MONROE         LGT RAIN  73  72  97 CALM      29.84F
6HR MIN TEMP:  73; 6HR MAX TEMP:  77; 6HR PCP:  0.09;

MT. CLEMENS    CLOUDY    76  73  90 S6        29.82F
6HR MIN TEMP:  74; 6HR MAX TEMP:  76;

PONTIAC        CLOUDY    75  67  76 CALM      29.85R
6HR MIN TEMP:  75; 6HR MAX TEMP:  77;

PORT HOPE        N/A     71  67  87 SW3       29.85R
6HR MIN TEMP:  70; 6HR MAX TEMP:  72; 6HR PCP:  0.02;

PORT HURON     CLOUDY    73  70  88 SE3       29.85S
TRI CITIES     CLOUDY    70  68  93 E7        29.84S
6HR MIN TEMP:  70; 6HR MAX TEMP:  77; 6HR PCP:  0.16;

YPSILANTI      CLOUDY    73  69  87 SW7       29.86R
6HR MIN TEMP:  73; 6HR MAX TEMP:  77; 6HR PCP: TRACE;

$$
MIZ043>046-050>051-056>058-064>065-071>073-077>080-221300-
SOUTHWEST LOWER MICHIGAN

CITY           SKY/WX    TMP DP  RH WIND       PRES   REMARKS
BATTLE CREEK   CLOUDY    71  70  96 S6        29.84S
6HR MIN TEMP:  70; 6HR MAX TEMP:  72; 6HR PCP:  0.07;

BENTON HARBOR  CLOUDY    73  69  87 E3        29.82R
6HR MIN TEMP:  70; 6HR MAX TEMP:  73; 6HR PCP:  0.12;

BIG RAPIDS     RAIN      66  64  91 NW5       29.83R
6HR MIN TEMP:  65; 6HR MAX TEMP:  68; 6HR PCP:  0.08;

COLDWATER      CLOUDY    70  70 100 SE3       29.84R
6HR MIN TEMP:  69; 6HR MAX TEMP:  73;

HOLLAND        CLOUDY    71  69  93 S5        29.81R
6HR MIN TEMP:  69; 6HR MAX TEMP:  74; 6HR PCP:  0.11;

GRAND RAPIDS   CLOUDY    70  69  97 S6        29.81R
6HR MIN TEMP:  70; 6HR MAX TEMP:  74; 6HR PCP:  0.01;

KALAMAZOO      CLOUDY    73  68  84 MISG      29.84R
6HR MIN TEMP:  69; 6HR MAX TEMP:  73; 6HR PCP:  0.13;

MARSHALL       CLOUDY    71  70  98 S5        29.84R
6HR MIN TEMP:  70; 6HR MAX TEMP:  74; 6HR PCP:  0.11;

MOUNT PLEASANT CLOUDY    70  66  88 CALM      29.83R
MUSKEGON       CLOUDY    71  68  90 SE3       29.80R
6HR MIN TEMP:  70; 6HR MAX TEMP:  72; 6HR PCP:  0.04;

STURGIS        CLOUDY    70  69  96 SE5       29.85R
6HR MIN TEMP:  70; 6HR MAX TEMP:  72; 6HR PCP:  0.36;

$$
MIZ016>042-221300-
NORTHERN LOWER MICHIGAN

CITY           SKY/WX    TMP DP  RH WIND       PRES   REMARKS
ALPENA         CLOUDY    67  64  90 CALM      29.86F
6HR MIN TEMP:  63; 6HR MAX TEMP:  67;

BEAVER ISLAND  CLOUDY    68  66  96 S3        29.85S
6HR MIN TEMP:  63; 6HR MAX TEMP:  68;

BELLAIRE       CLOUDY    68  65  89 CALM      29.85S
6HR MIN TEMP:  65; 6HR MAX TEMP:  69;

CADILLAC       RAIN      69  64  84 N6        29.87R
CHARLEVOIX     CLOUDY    71  65  81 E3        29.88S
GAYLORD        CLOUDY    70  62  76 CALM      29.88F
6HR MIN TEMP:  68; 6HR MAX TEMP:  71; 6HR PCP: TRACE;

HOUGHTON LAKE  CLOUDY    68  65  90 NE5       29.88R
6HR MIN TEMP:  67; 6HR MAX TEMP:  74; 6HR PCP:  0.01;

MANISTEE       CLOUDY    69  65  86 E5        29.82R
OSCODA         LGT RAIN  68  66  94 W6        29.85F
6HR MIN TEMP:  67; 6HR MAX TEMP:  71; 6HR PCP:  0.01;

PELLSTON       CLOUDY    67  62  84 CALM      29.86S
6HR MIN TEMP:  61; 6HR MAX TEMP:  67;

TRAVERSE CITY  CLOUDY    70  66  87 E6        29.84R
6HR MIN TEMP:  69; 6HR MAX TEMP:  75; 6HR PCP:  0.01;

LUDINGTON      CLOUDY    67  65  92 E7        29.81S
6HR MIN TEMP:  66; 6HR MAX TEMP:  70;

$$
MIZ007>008-015-221300-
EASTERN UPPER MICHIGAN

CITY           SKY/WX    TMP DP  RH WIND       PRES   REMARKS
KINROSS        CLOUDY    64  55  72 E8        29.87F
6HR MIN TEMP:  57; 6HR MAX TEMP:  64;

MACKINAC ISLAN MOSUNNY   67  64  87 E9        29.85S
6HR MIN TEMP:  62; 6HR MAX TEMP:  68;

NEWBERRY       MOSUNNY   62  59  88 CALM      29.84F
6HR MIN TEMP:  57; 6HR MAX TEMP:  62;

S. S. MARIE    CLOUDY    62  55  77 E7        29.87F
6HR MIN TEMP:  58; 6HR MAX TEMP:  63;

$$
MIZ004>006-011>014-085-221300-
CENTRAL UPPER MICHIGAN

CITY           SKY/WX    TMP DP  RH WIND       PRES   REMARKS
MANISTIQUE     CLOUDY    68  64  89 SE3       29.83R
6HR MIN TEMP:  64; 6HR MAX TEMP:  68;

ESCANABA       CLOUDY    69  66  90 CALM      29.83R
6HR MIN TEMP:  60; 6HR MAX TEMP:  71;

MENOMINEE      CLOUDY    69  63  81 CALM      29.83R
6HR MIN TEMP:  67; 6HR MAX TEMP:  71;

SAWYER-GWINN   PTSUNNY   64  63  94 S5        29.84S FOG
$$
MIZ001>003-009>011-084-221300-
WESTERN UPPER MICHIGAN

CITY           SKY/WX    TMP DP  RH WIND       PRES   REMARKS
IRON MOUNTAIN  CLOUDY    66  61  84 CALM      29.83R
6HR MIN TEMP:  62; 6HR MAX TEMP:  67;

HOUGHTON       CLOUDY    61  55  81 E7        29.82R
6HR MIN TEMP:  61; 6HR MAX TEMP:  63; 6HR PCP: TRACE;

COPPER HARBOR    N/A     65  51  60 SW9G23    29.82R
6HR MIN TEMP:  58; 6HR MAX TEMP:  67;

IRONWOOD       CLOUDY    66  65  96 SW5       29.84R
6HR MIN TEMP:  64; 6HR MAX TEMP:  68;

$$

ABBREVIATIONS USED IN REMARKS
   TC - TEMPERATURE IN CELSIUS
  WCI - WIND CHILL INDEX
   HX - HEAT INDEX
  VSB - VISIBILITY




USA.gov is the U.S. government's official web portal to all federal, state and local government web resources and services.